Location: Ocean City
(38.3360°N, 75.0850°W)
Time: 22:47:53
(UTC-05:00)

Explorer 11/Cluster Stage 4 - Pass Details

Date: 19 November 2019
Orbit: 467 x 1259 km, 28.8° (Epoch: 12 December)

Event Time Altitude Azimuth Distance (km) Brightness Sun altitude
Rises 01:30:23 0° 261° (W) 4,017 - -60.5°
Reaches altitude 10° 01:34:23 10° 242° (WSW) 3,148 - -59.8°
Maximum altitude 01:38:59 16° 207° (SSW) 2,743 - -59.0°
Drops below altitude 10° 01:43:41 10° 172° (S) 3,224 - -58.2°
Sets 01:47:52 0° 153° (SSE) 4,159 - -57.5°
